This is the latest recevied weather packets stored in our database for station/object KG7MRB. If no packets are shown the sender has not sent any weather packets the latest 10 day(s).
| Time | Temp. | Humidity | Pressure | Rain* | Wind** | Luminosity | Snow |
|---|---|---|---|---|---|---|---|
| 1777568108 | 17.22° C | 65% | 1039.6 hPa | 0 mm | - | 422 W/m² | - |
| 1777567804 | 16.67° C | 65% | 1039.7 hPa | 0 mm | - | 408 W/m² | - |
| 1777567500 | 16.11° C | 70% | 1039.6 hPa | 0 mm | - | 394 W/m² | - |
| 1777567198 | 15.56° C | 67% | 1039.7 hPa | 0 mm | - | 387 W/m² | - |
| 1777566890 | 15° C | 72% | 1039.8 hPa | 0 mm | - | 377 W/m² | - |
| 1777566588 | 14.44° C | 76% | 1039.8 hPa | 0 mm | - | 341 W/m² | - |
| 1777566285 | 14.44° C | 79% | 1039.8 hPa | 0 mm | - | 331 W/m² | - |
| 1777565982 | 13.89° C | 79% | 1040.1 hPa | 0 mm | - | 340 W/m² | - |
| 1777565678 | 12.78° C | 81% | 1040 hPa | 0 mm | - | 352 W/m² | - |
| 1777565375 | 12.78° C | 85% | 1040 hPa | 0 mm | - | 275 W/m² | - |
| 1777565070 | 12.22° C | 88% | 1040 hPa | 0 mm | - | 221 W/m² | - |
| 1777564767 | 11.67° C | 90% | 1040.2 hPa | 0 mm | - | 193 W/m² | - |
| 1777564462 | 11.11° C | 90% | 1040.2 hPa | 0 mm | - | 193 W/m² | - |
| 1777564157 | 10° C | 91% | 1040.1 hPa | 0 mm | - | 172 W/m² | - |
| 1777563854 | 10° C | 92% | 1040 hPa | 0 mm | - | 161 W/m² | - |
| 1777563550 | 9.44° C | 94% | 1040.3 hPa | 0 mm | - | 147 W/m² | - |
| 1777563250 | 8.89° C | 95% | 1040.1 hPa | 0 mm | - | 134 W/m² | - |
| 1777562946 | 8.33° C | 96% | 1040.3 hPa | 0 mm | - | 131 W/m² | - |
| 1777562642 | 7.78° C | 97% | 1040.7 hPa | 0 mm | - | 129 W/m² | - |
| 1777562336 | 6.67° C | 98% | 1040.7 hPa | 0 mm | - | 111 W/m² | - |
| 1777562032 | 5.56° C | 99% | 1040.5 hPa | 0 mm | - | 92 W/m² | - |
| 1777561730 | 5° C | 99% | 1040.5 hPa | 0 mm | - | 79 W/m² | - |
| 1777561425 | 5° C | 99% | 1040.4 hPa | 0 mm | - | 78 W/m² | - |
| 1777561120 | 5° C | 99% | 1040.7 hPa | 0 mm | - | 76 W/m² | - |
| 1777560816 | 4.44° C | 99% | 1040.7 hPa | 0 mm | - | 74 W/m² | - |
* Rain latest hour (hover to see other rain measurements)
** Current wind speed in m/s (hover to see current wind gust speed)